This is the latest recevied weather packets stored in our database for station/object CE3TDM-10. If no packets are shown the sender has not sent any weather packets the latest 10 day(s).
| Time | Temp. | Humidity | Pressure | Rain* | Wind** | Luminosity | Snow |
|---|---|---|---|---|---|---|---|
| 1788140804 | 25.56° C | 32% | 923.7 hPa | - | - | - | - |
| 1788139904 | 25.56° C | 32% | 922.5 hPa | - | - | - | - |
| 1788139004 | 25.56° C | 32% | 923.1 hPa | - | - | - | - |
| 1788137202 | 25.56° C | 31% | 923 hPa | - | - | - | - |
| 1788136302 | 25.56° C | 31% | 921.6 hPa | - | - | - | - |
| 1788135402 | 25.56° C | 31% | 921.9 hPa | - | - | - | - |
| 1788133602 | 25° C | 31% | 921.9 hPa | - | - | - | - |
| 1788132702 | 25° C | 31% | 921.8 hPa | - | - | - | - |
| 1788130901 | 24.44° C | 31% | 921.5 hPa | - | - | - | - |
| 1788130001 | 24.44° C | 31% | 921.4 hPa | - | - | - | - |
| 1788128201 | 22.22° C | 31% | 921 hPa | - | - | - | - |
| 1788126401 | 23.89° C | 30% | 920.8 hPa | - | - | - | - |
| 1788124604 | 23.89° C | 30% | 920.9 hPa | - | - | - | - |
| 1788123701 | 24.44° C | 30% | 920.8 hPa | - | - | - | - |
| 1788122801 | 24.44° C | 29% | 920.8 hPa | - | - | - | - |
| 1788121901 | 25° C | 29% | 921 hPa | - | - | - | - |
| 1788121001 | 25.56° C | 28% | 920.6 hPa | - | - | - | - |
| 1788119201 | 26.11° C | 28% | 920.6 hPa | - | - | - | - |
| 1788118300 | 26.67° C | 28% | 920.6 hPa | - | - | - | - |
| 1788117400 | 27.22° C | 27% | 920.6 hPa | - | - | - | - |
| 1788116500 | 27.22° C | 27% | 920.6 hPa | - | - | - | - |
| 1788115600 | 27.22° C | 26% | 920.4 hPa | - | - | - | - |
| 1788114700 | 30° C | 24% | 920.4 hPa | - | - | - | - |
| 1788113800 | 34.44° C | 25% | 920.4 hPa | - | - | - | - |
| 1788112000 | 36.11° C | 26% | 920.4 hPa | - | - | - | - |
* Rain since midnight (hover to see other rain measurements)
** Current wind speed in m/s (hover to see current wind gust speed)